Stations météo

Publicité
Le Talut, France (7207): Température de l'air & dewpoint: 16.01.2019 03:00:00 - 22.01.2019 03:00:00 (CET)Le Talut, France (7207): Vitesse du vent & gusts: 16.01.2019 03:00:00 - 22.01.2019 03:00:00 (CET)Le Talut, France (7207): Direction du vent: 16.01.2019 03:00:00 - 22.01.2019 03:00:00 (CET)Le Talut, France (7207): reduced air pressure: 16.01.2019 03:00:00 - 22.01.2019 03:00:00 (CET)Le Talut, France (7207): visibility: 16.01.2019 03:00:00 - 22.01.2019 03:00:00 (CET)Le Talut, France (7207): Quantités de précipitations: 16.01.2019 03:00:00 - 22.01.2019 03:00:00 (CET)
Date & Time tt [°C] td [°C] ff [km/h] ff [knt] fx [km/h] fx [knt] dd ppp [hPa] vv [km] rr [mm]
22.01.2019 03:00:00 9,2 6,8 36 20 64 35 WSW 1013,1 - 0,2
22.01.2019 02:00:00 9,3 6,4 31 17 63 34 WSW 1015,0 - 0,4
22.01.2019 01:00:00 9,0 7,1 26 14 62 34 SW 1016,6 - 0,2
22.01.2019 00:00:00 9,1 4,9 40 21 52 28 SSW 1017,8 - 0,0
21.01.2019 23:00:00 8,6 3,8 32 17 49 26 SSW 1018,9 - 0,0
21.01.2019 22:00:00 8,2 3,0 23 13 40 22 SW 1020,5 - 0,0
21.01.2019 21:00:00 7,7 2,6 19 10 36 20 SSW 1020,9 - 0,0
21.01.2019 20:00:00 7,3 2,6 13 7 24 13 SW 1021,8 - 0,0
21.01.2019 19:00:00 7,0 2,1 12 6 20 11 WSW 1023,0 - 0,0
21.01.2019 18:00:00 6,5 2,0 8 4 15 8 W 1023,4 - 0,0
21.01.2019 17:00:00 7,4 1,5 8 4 15 8 SW 1023,4 - 0,0
21.01.2019 16:00:00 8,1 1,5 7 4 14 8 SW 1023,9 25 0,0
21.01.2019 15:00:00 7,3 1,4 5 3 15 8 NNW 1024,4 - 0,2
21.01.2019 14:00:00 7,7 1,5 8 4 18 10 NE 1024,9 - 0,0
21.01.2019 13:00:00 7,0 1,1 10 6 18 10 N 1025,7 25 0,0
21.01.2019 12:00:00 7,4 1,5 9 5 16 9 N 1026,2 - 0,0
21.01.2019 11:00:00 6,5 1,8 6 4 15 8 N 1026,0 - 0,0
21.01.2019 10:00:00 4,3 1,5 11 6 15 8 N 1025,9 20 0,0
21.01.2019 09:00:00 3,1 1,0 9 5 14 7 N 1025,6 - 0,0
21.01.2019 08:00:00 2,4 0,0 11 6 14 8 N 1025,5 - 0,0
21.01.2019 07:00:00 2,7 -0,1 8 5 13 7 N 1025,3 18 0,0
21.01.2019 06:00:00 2,9 0,1 4 2 14 8 N 1024,8 - 0,0
21.01.2019 05:00:00 2,5 -0,1 10 5 12 7 ENE 1024,6 - 0,0
21.01.2019 04:00:00 3,3 1,3 5 3 21 11 NNE 1024,8 - 0,0
21.01.2019 03:00:00 3,1 1,5 12 7 19 11 NNE 1024,6 - 0,0
21.01.2019 02:00:00 3,3 1,5 13 7 21 12 NNE 1024,3 - 0,0
21.01.2019 01:00:00 3,8 1,7 13 7 28 15 NNE 1023,9 - 0,0
21.01.2019 00:00:00 4,7 2,1 18 10 28 15 N 1023,5 - 0,0
20.01.2019 23:00:00 5,2 2,5 18 10 31 17 N 1023,0 - 0,0
20.01.2019 22:00:00 5,7 3,4 18 10 30 16 N 1022,3 - 0,0
20.01.2019 21:00:00 5,4 3,1 13 7 21 11 N 1021,6 - 0,0
20.01.2019 20:00:00 6,8 3,8 14 7 26 14 N 1020,7 - 0,0
20.01.2019 19:00:00 7,6 4,5 16 8 24 13 N 1020,0 20 0,0
20.01.2019 18:00:00 7,7 4,1 14 7 31 17 N 1019,3 - 0,0
20.01.2019 17:00:00 8,7 4,3 19 11 32 18 NNE 1018,4 - 0,0
20.01.2019 16:00:00 8,8 4,6 12 7 25 13 N 1017,5 20 0,0
20.01.2019 15:00:00 8,8 5,2 16 9 31 17 N 1017,1 - 0,0
20.01.2019 14:00:00 9,7 5,5 17 9 30 16 N 1016,9 - 0,0
20.01.2019 13:00:00 9,1 6,4 21 11 41 22 NNE 1016,7 - 0,0
20.01.2019 12:00:00 9,2 6,5 20 11 37 20 N 1016,1 - 0,0
20.01.2019 11:00:00 8,2 5,8 18 10 32 17 N 1015,3 - 0,0
20.01.2019 10:00:00 7,5 6,0 14 8 22 12 N 1014,4 20 0,0
20.01.2019 09:00:00 6,4 5,2 14 7 24 13 N 1013,6 - 0,0
20.01.2019 08:00:00 6,4 5,3 13 7 23 13 N 1012,8 - 0,0
20.01.2019 07:00:00 6,6 5,5 15 8 23 12 N 1012,1 - 0,0
20.01.2019 06:00:00 6,4 5,2 14 8 21 11 N 1011,3 - 0,0
20.01.2019 05:00:00 6,7 5,2 14 8 21 12 NNW 1011,0 - 0,0
20.01.2019 04:00:00 7,4 6,0 14 7 22 12 NNW 1010,7 - 0,0
20.01.2019 03:00:00 6,9 5,0 13 7 19 10 N 1010,3 - 0,0
20.01.2019 02:00:00 7,7 5,2 15 8 28 15 NNW 1009,9 - 0,0
20.01.2019 01:00:00 8,8 5,5 18 10 29 15 NW 1009,6 - 0,0
20.01.2019 00:00:00 9,5 6,9 11 6 22 12 WNW 1009,3 - 0,0
19.01.2019 23:00:00 8,5 5,8 11 6 17 9 NW 1008,9 - 0,0
19.01.2019 22:00:00 8,5 5,4 9 5 26 14 W 1008,6 - 0,2
19.01.2019 21:00:00 7,3 4,9 9 5 20 11 N 1008,3 - 0,0
19.01.2019 20:00:00 9,1 5,6 10 6 22 12 NW 1008,1 - 0,0
19.01.2019 19:00:00 9,4 6,1 10 5 26 14 NW 1007,8 - 0,0
19.01.2019 18:00:00 9,8 5,8 15 8 26 14 W 1007,5 - 0,0
19.01.2019 17:00:00 10,7 6,3 16 9 28 15 W 1007,3 - 0,0
19.01.2019 16:00:00 11,0 6,7 16 9 26 14 WSW 1007,3 15 0,0
19.01.2019 15:00:00 10,6 6,9 13 7 23 12 SW 1007,6 - 0,0
19.01.2019 14:00:00 10,4 6,5 13 7 29 15 WSW 1008,1 - 0,0
19.01.2019 13:00:00 9,8 6,9 19 11 34 18 SW 1008,9 15 0,0
19.01.2019 12:00:00 10,2 6,5 16 9 29 15 WSW 1009,4 - 0,0
19.01.2019 11:00:00 9,2 5,0 19 10 40 22 WSW 1009,5 - 0,0
19.01.2019 10:00:00 10,1 6,8 18 10 28 15 W 1009,2 15 0,0
19.01.2019 09:00:00 9,4 5,9 18 10 41 22 W 1009,0 - 0,0
19.01.2019 08:00:00 9,7 6,0 26 14 37 20 W 1008,9 - 0,0
19.01.2019 07:00:00 9,9 6,2 22 12 45 24 W 1009,0 12 0,0
19.01.2019 06:00:00 9,2 6,5 22 12 53 29 W 1009,1 - 0,6
19.01.2019 05:00:00 9,9 6,6 24 13 40 22 W 1009,4 - 0,0
19.01.2019 04:00:00 9,9 7,3 19 10 34 19 W 1009,9 - 0,8
19.01.2019 03:00:00 9,7 7,1 14 7 29 16 W 1010,1 - 0,0
19.01.2019 02:00:00 9,8 7,6 16 8 24 13 W 1010,5 - 0,0
19.01.2019 01:00:00 9,4 8,2 13 7 21 11 W 1010,8 - 0,0
19.01.2019 00:00:00 8,9 7,3 9 5 20 11 WNW 1010,8 - 0,0
18.01.2019 23:00:00 8,6 6,7 13 7 24 13 NW 1010,8 - 0,0
18.01.2019 22:00:00 8,9 7,5 9 5 35 19 NNW 1010,6 - 1,2
18.01.2019 21:00:00 9,4 8,3 24 13 57 31 S 1010,6 - 0,6
18.01.2019 20:00:00 9,7 7,6 37 20 55 30 S 1010,6 - 0,0
18.01.2019 19:00:00 9,5 8,1 35 19 54 29 S 1010,8 12 0,2
18.01.2019 18:00:00 9,6 8,2 31 17 51 27 S 1011,6 - 1,0
18.01.2019 17:00:00 9,4 7,5 40 22 50 27 SSE 1012,0 - 0,2
18.01.2019 16:00:00 9,6 6,9 30 16 51 28 SSE 1013,2 20 0,0
18.01.2019 15:00:00 9,3 6,2 33 18 53 29 S 1013,8 - 0,0
18.01.2019 14:00:00 9,9 6,2 37 20 51 28 SSE 1014,4 - 0,0
18.01.2019 13:00:00 9,6 5,4 35 19 49 26 SSE 1015,6 20 0,0
18.01.2019 12:00:00 9,4 5,2 35 19 48 26 SSE 1016,3 - 0,0
18.01.2019 11:00:00 8,0 5,5 30 16 44 24 SE 1016,7 - 0,0
18.01.2019 10:00:00 7,6 4,2 26 14 43 23 SE 1017,2 - 0,0
18.01.2019 09:00:00 7,2 3,1 22 12 36 19 SE 1017,6 - 0,0
18.01.2019 08:00:00 7,1 1,6 22 12 35 19 SE 1017,8 - 0,0
18.01.2019 07:00:00 6,9 1,6 18 10 39 21 SE 1018,1 - 0,0
18.01.2019 06:00:00 6,8 2,1 15 8 30 16 SE 1018,7 - 0,0
18.01.2019 05:00:00 6,8 1,1 13 7 28 15 SE 1019,4 - 0,0
18.01.2019 04:00:00 6,7 0,4 8 4 23 13 ESE 1019,9 - 0,0
18.01.2019 03:00:00 6,7 0,6 9 5 25 13 ESE 1020,2 - 0,0
18.01.2019 02:00:00 4,6 -0,6 11 6 18 10 ENE 1020,6 - 0,0
18.01.2019 01:00:00 4,7 -1,1 11 6 16 8 ENE 1020,7 - 0,0
18.01.2019 00:00:00 5,1 -1,6 10 5 12 7 NE 1021,2 - 0,0
17.01.2019 23:00:00 4,9 -1,1 11 6 15 8 NE 1021,2 - 0,0
17.01.2019 22:00:00 4,5 -0,9 10 6 18 10 NNE 1021,0 - 0,0
17.01.2019 21:00:00 4,9 0,5 14 7 19 10 NNE 1020,6 - 0,0
17.01.2019 20:00:00 4,7 1,0 10 6 22 12 NNE 1020,3 - 0,0
17.01.2019 19:00:00 6,3 2,2 16 9 26 14 NE 1019,5 25 0,0
17.01.2019 18:00:00 7,6 2,5 12 6 40 21 N 1018,9 - 0,0
17.01.2019 17:00:00 9,9 4,9 16 8 31 17 WNW 1018,4 - 0,0
17.01.2019 16:00:00 9,9 4,3 19 10 36 19 NW 1017,6 - 0,0
17.01.2019 15:00:00 10,0 3,9 25 14 39 21 NW 1017,5 - 0,0
17.01.2019 14:00:00 10,4 4,3 23 12 54 29 NW 1017,3 - 0,0
17.01.2019 13:00:00 10,7 2,8 26 14 42 23 WNW 1017,6 25 0,0
17.01.2019 12:00:00 10,4 3,0 26 14 44 24 NW 1017,7 - 0,0
17.01.2019 11:00:00 9,8 4,2 17 9 36 19 WNW 1017,4 - 0,0
17.01.2019 10:00:00 8,8 3,8 19 10 45 24 NW 1016,7 25 0,0
17.01.2019 09:00:00 8,5 2,5 23 13 44 24 NW 1015,8 - 0,0
17.01.2019 08:00:00 8,4 2,2 27 15 48 26 NW 1015,1 - 0,0
17.01.2019 07:00:00 8,4 3,4 24 13 50 27 NW 1014,5 25 0,0
17.01.2019 06:00:00 8,7 3,3 27 15 51 28 NW 1013,8 - 0,0
17.01.2019 05:00:00 8,8 4,6 19 11 61 33 WNW 1013,5 - 0,0
17.01.2019 04:00:00 9,4 4,6 26 14 65 35 WNW 1013,1 - 0,0
17.01.2019 03:00:00 9,3 4,7 27 15 61 33 W 1012,6 - 0,2
17.01.2019 02:00:00 9,1 5,1 37 20 61 33 W 1012,5 - 0,0
17.01.2019 01:00:00 9,5 5,3 33 18 69 38 W 1012,4 - 0,2
17.01.2019 00:00:00 9,7 4,5 37 20 65 35 W 1012,3 - 0,0
16.01.2019 23:00:00 9,7 5,5 26 14 46 25 W 1012,3 - 0,0
16.01.2019 22:00:00 9,5 5,3 26 14 45 25 WNW 1011,9 - 0,0
16.01.2019 21:00:00 9,2 7,5 18 10 37 20 NW 1011,4 - 0,0
16.01.2019 20:00:00 8,9 7,3 25 13 59 32 NW 1010,9 - 0,0
16.01.2019 19:00:00 9,4 7,7 36 19 58 31 NW 1010,3 - 0,4
16.01.2019 18:00:00 10,8 9,4 22 12 41 22 W 1009,8 - 0,0
16.01.2019 17:00:00 10,3 9,2 29 15 52 28 WSW 1009,9 - 0,0
16.01.2019 16:00:00 10,8 9,2 27 14 47 26 SW 1010,1 20 0,0
16.01.2019 15:00:00 10,2 8,1 26 14 43 23 SSW 1010,5 - 0,0
16.01.2019 14:00:00 9,8 7,9 24 13 45 24 SW 1011,2 - 0,0
16.01.2019 13:00:00 10,3 6,8 22 12 41 22 SW 1012,0 20 0,0
16.01.2019 12:00:00 10,4 5,8 21 11 38 21 SW 1012,6 - 0,0
16.01.2019 11:00:00 10,0 5,0 19 10 32 17 SW 1013,3 - 0,0
16.01.2019 10:00:00 9,9 4,7 19 10 41 22 WSW 1013,5 16 0,0
16.01.2019 09:00:00 9,7 4,7 22 12 36 20 SW 1013,4 - 0,0
16.01.2019 08:00:00 9,4 4,4 19 10 39 21 SSW 1013,8 - 0,0
16.01.2019 07:00:00 9,1 3,9 25 13 39 21 SSW 1014,2 - 0,0
16.01.2019 06:00:00 9,0 3,8 16 9 34 19 WSW 1015,1 - 0,0
16.01.2019 05:00:00 8,1 4,3 19 10 30 16 S 1015,9 - 0,0
16.01.2019 04:00:00 8,1 3,7 17 9 25 14 SSE 1016,7 - 0,0
16.01.2019 03:00:00 8,0 3,1 16 8 24 13 S 1017,5 - 0,0

tt = Température de l'air
td = dewpoint
ff = Vitesse du vent
fx = gusts
dd = Direction du vent
ppp = reduced air pressure
vv = visibility
rr = Quantités de précipitations

stations d'obs. à proximité